Terminal Aerodrome Forecast
Issued by NWS Wakefield, VA

Home | Current Version | Previous Version | Text Only | Print | Product List | Glossary On
Versions: 1 2 3 4 5 6 7 8 9 10 11 12 13 14 15 16 17 18 19 20 21
000
FTUS41 KAKQ 230500 RRA
TAFECG
TAF
KECG 230546Z 2306/2406 23010KT P6SM BKN120
     FM231000 33013G20KT P6SM SCT150
     FM231400 31016G25KT P6SM SKC
     FM232300 33012KT P6SM SKC=

USA.gov is the U.S. government's official web portal to all federal, state and local government web resources and services.